Regional Weather Roundup
Issued by NWS Goodland, KS

Home | Current Version | Previous Version | Graphics & Text | Print | Product List | Glossary On
Versions: 1 2 3 4 5 6 7 8 9 10 11 12 13 14 15 16 17 18 19 20 21 22 23 24 25 26 27 28 29 30 31 32 33 34 35 36 37 38 39 40 41 42 43 44 45 46 47 48 49 50
000
ASUS43 KGLD 161308
RWRGLD

GOODLAND FORECAST AREA HOURLY WEATHER ROUNDUP
NATIONAL WEATHER SERVICE GOODLAND KS
600 AM MST MON JAN 16 2017

...OFFICIAL OBSERVATIONS...

CITY           SKY/WX    TMP DP  RH WIND       PRES   REMARKS
GOODLAND KS    FRZ RAIN  31  30  96 N20       29.86S WCI  19
HILL CITY KS   FRZ RAIN  32  32 100 N7        29.88R FOG
IMPERIAL NEB   FRZ RAIN  32  30  92 N15       29.91F
MCCOOK NEB     MIX PCPN  32  32 100 N15       29.91S FOG
AKRON CO       LGT SNOW  28  26  92 N20       29.92S FOG     WCI  15
BURLINGTON CO  LGT SNOW  30  28  92 N16       29.87S FOG     WCI  19
LIMON CO       LGT SNOW  27  26  96 NW22      29.91R FOG     WCI  13
$$

...UNOFFICIAL OBSERVATIONS...

CITY           SKY/WX    TMP DP  RH WIND       PRES   REMARKS
LENORA KS        N/A     31  32 100 CALM        N/A
NORTON KS      LGT RAIN  34  28  80 N7        29.87S
SHARON SPRINGS   N/A     32  32 100 CALM        N/A
TRENTON NEB      N/A     32  32 100 CALM        N/A
KIT CARSON CO    N/A     30  27  90 CALM        N/A
YUMA CO        LGT SNOW  30  28  93 NW10      29.92R
$$




USA.gov is the U.S. government's official web portal to all federal, state and local government web resources and services.